Flag for Tunisia Weather past 2 weeks in Tunis, Tunisia

Now
70 °F

Strong thunderstorms. Scattered clouds.


Feels Like: 70 °F
Forecast: 58 / 71 °F
Wind: 21 mph from West

Location: Tunis-Carthage

Current Time: Mar 30, 2015 at 4:00:46 PM

Latest Report: Mar 30, 2015 at 3:30 PM


Visibility: N/A

Pressure: 30.01 "Hg

Humidity: 46%

Dew point: 48 °F

Location of TunisLocation

Historic Weather in Tunis — Graph

°F

Tunis temperature yesterday

Maximum temperature yesterday: 66 °F (at 12:30 PM)
Minimum temperature yesterday: 54 °F (at 1:00 AM)
Average temperature yesterday: 60 °F

Past Weeks' High & Low Weather Summary

 TemperatureHumidityPressure
High72 °F (Mar 22, 1:00 PM)100% (Mar 24, 8:30 PM)30.15 "Hg (Mar 24, 8:30 PM)
Low46 °F (Mar 18, 6:30 AM)44% (Mar 25, 1:00 PM)29.42 "Hg (Mar 24, 8:00 PM)
Average58 °F75%29.91 "Hg
* Reported Mar 15 3:00 PM — Mar 30 3:00 PM, Tunis, Weather by CustomWeather, © 2015

Note: Actual official high and low records may vary slightly from our data, if they occured in-between our weather recording intervals... More about our weather records

Advertising

Tunis weather history for previous 24 hours

 ConditionsComfort  
Time TempWeatherWind HumidityBarometerVisibility
3:00 PM
Mon, Mar 30
68 °FScattered clouds.20 mph46%30.01 "HgN/A
2:58 PM68 °FScattered clouds.20 mph46%30.01 "HgN/A
2:00 PM68 °FScattered clouds.15 mph53%30.04 "HgN/A
1:30 PM68 °FScattered clouds.20 mph53%30.04 "HgN/A
1:00 PM68 °FScattered clouds.20 mph53%30.04 "HgN/A
12:30 PM70 °FScattered clouds.20 mph46%30.07 "HgN/A
12:00 PM68 °FScattered clouds.21 mph49%30.07 "HgN/A
11:30 AM68 °FScattered clouds.25 mph53%30.07 "HgN/A
11:00 AM66 °FScattered clouds.22 mph56%30.09 "HgN/A
10:30 AM66 °FScattered clouds.21 mph60%30.09 "HgN/A
10:00 AM64 °FScattered clouds.18 mph60%30.07 "HgN/A
9:50 AM64 °FScattered clouds.18 mph60%30.07 "HgN/A
9:30 AM64 °FPassing clouds.18 mph64%30.09 "HgN/A
9:00 AM64 °FPassing clouds.15 mph64%30.09 "HgN/A
8:30 AM63 °FPassing clouds.15 mph68%30.07 "HgN/A
8:00 AM63 °FPassing clouds.15 mph64%30.07 "HgN/A
7:30 AM61 °FPassing clouds.15 mph68%30.07 "HgN/A
7:00 AM61 °FPassing clouds.17 mph63%30.07 "HgN/A
6:30 AM59 °FPassing clouds.15 mph72%30.04 "HgN/A
6:00 AM59 °FPassing clouds.14 mph72%30.04 "HgN/A
5:30 AM59 °FPassing clouds.18 mph72%30.04 "HgN/A
5:00 AM59 °FPassing clouds.20 mph72%30.04 "HgN/A
4:00 AM55 °FPassing clouds.6 mph72%30.07 "HgN/A
3:30 AM55 °FPassing clouds.9 mph72%30.07 "HgN/A
3:00 AM55 °FPassing clouds.8 mph77%30.07 "HgN/A
2:30 AM55 °FPassing clouds.7 mph77%30.07 "HgN/A
2:00 AM55 °FPassing clouds.7 mph77%30.07 "HgN/A
1:30 AM57 °FPassing clouds.7 mph72%30.09 "HgN/A
1:00 AM57 °FPassing clouds.10 mph72%30.09 "HgN/A
12:30 AM57 °FPassing clouds.10 mph72%30.09 "HgN/A
11:30 PM
Sun, Mar 29
59 °FPassing clouds.17 mph72%30.09 "HgN/A
11:00 PM59 °FPassing clouds.14 mph72%30.09 "HgN/A
10:30 PM59 °FPassing clouds.13 mph72%30.09 "HgN/A
10:00 PM59 °FPassing clouds.15 mph72%30.09 "HgN/A
9:30 PM57 °FPassing clouds.13 mph77%30.09 "HgN/A
9:00 PM57 °FPassing clouds.13 mph77%30.09 "HgN/A
8:30 PM57 °FPassing clouds.13 mph77%30.09 "HgN/A
8:00 PM59 °FPassing clouds.13 mph72%30.09 "HgN/A
7:30 PM59 °FPassing clouds.14 mph72%30.09 "HgN/A
7:00 PM59 °FPassing clouds.14 mph72%30.07 "HgN/A
6:30 PM61 °FScattered clouds.15 mph68%30.07 "HgN/A
6:00 PM63 °FScattered clouds.16 mph64%30.07 "HgN/A
5:30 PM63 °FScattered clouds.22 mph59%30.07 "HgN/A
5:00 PM64 °FScattered clouds.18 mph60%30.04 "HgN/A
4:30 PM64 °FScattered clouds.21 mph60%30.04 "HgN/A
4:00 PM64 °FScattered clouds.20 mph60%30.04 "HgN/A
Weather by CustomWeather, © 2015

See weather overviewHow to use our weather pages